Regional Weather Roundup
Issued by NWS Midland/Odessa, TX

Skip options and go directly to product.
Home | Oldest Version | Previous Version | Current Version | All | Graphics & Text | Save Text | Print | Product List | Glossary On

Skip product version selection by date and time.   
834
ASUS44 KMAF 270610
RWRMAF
MIDLAND AREA WEATHER ROUNDUP
NATIONAL WEATHER SERVICE MIDLAND TX
100 AM CDT SAT AUG 27 2016

...IN SOUTHWEST TEXAS AND SOUTHEAST NEW MEXICO...

CITY           SKY/WX    TMP DP  RH WIND       PRES   REMARKS
ALPINE         CLEAR     65  61  87 S6        30.23S
ANDREWS        NOT AVBL
ARTESIA        CLEAR     70  63  78 CALM      30.11R
BIG SPRING     CLOUDY    73  69  88 SE5       30.11S
CARLSBAD       CLEAR     70  64  81 S7        30.07S
DRYDEN           N/A     72  71  97 S5        30.05R
FORT STOCKTON  CLOUDY    70  60  70 S10       30.07F
GUAD PASS      PTCLDY    64  58  80 NE17      30.22R
HOBBS          CLEAR     66  66 100 E5        30.14S
MARFA          CLEAR    N/A N/A N/A SE6       30.21S
MIDLAND AIRPK  CLOUDY    73  64  72 S5        30.10S
MIDLAND INTL   CLOUDY    72  65  78 SE5       30.09S
ODESSA         CLOUDY    73  61  65 S7        30.10S
PECOS          CLOUDY    70  63  78 E7        30.05F
PRESIDIO       NOT AVBL
SEMINOLE       CLOUDY    68  66  94 CALM      30.13S
SNYDER           N/A     72  67  86 E5        30.09S
WINK           CLOUDY    72  63  73 SE8       30.06F
$$
...OTHER STATIONS IN TEXAS...

CITY           SKY/WX    TMP DP  RH WIND       PRES   REMARKS
ABILENE        CLOUDY    75  70  84 SE6       30.07S
AMARILLO       LGT RAIN  62  59  90 SE16      30.14S
AUSTIN         PTCLDY    75  73  93 N3        30.02R
BROWNSVILLE    CLEAR     80  77  90 CALM      29.96F
CORPUS CHRISTI PTCLDY    82  75  79 SE6       29.97F
DALLAS FTW     MOCLDY    76  70  82 S7        30.00S
DEL RIO        CLOUDY    81  69  67 SE10      29.99R
EL PASO        MOCLDY    72  61  68 N14       30.09F
HOUSTON INT    MOCLDY    76  73  91 N5        29.98F
LUBBOCK        PTCLDY    66  63  90 SE3       30.13S
SAN ANGELO     CLOUDY    73  69  87 CALM      30.04F
SAN ANTONIO    MOCLDY    77  72  84 E3        30.01F
WACO           NOT AVBL
WICHITA FALLS  NOT AVBL
$$
...OTHER LOCATIONS IN NEW MEXICO...

CITY           SKY/WX    TMP DP  RH WIND       PRES   REMARKS
ALAMAGORDO     MOCLDY    66  59  77 NE9       30.17R
ALBUQUERQUE    PTCLDY    67  48  50 E6        30.16F
CANNON AFB     CLOUDY    66  61  86 SE12      30.16R
CLOVIS         CLOUDY    64  57  77 S13       30.16S
HOLLOMAN AFB   NOT AVBL
ROSWELL        CLOUDY    70  61  73 S6        30.10S
RUIDOSO          N/A     57  48  72 CALM      30.31S
SANTA FE       CLEAR     61  51  70 E6        30.22F
TRUTH OR CONSE MOCLDY    67  56  67 S3        30.15S
TUCUMCARI      CLOUDY    69  60  73 S13       30.10S
$$

USA.gov is the U.S. government's official web portal to all federal, state and local government web resources and services.